QPF
0.02 0.05 0.04 0.01 0.00 0.00 0.00 0.00 0.00 0.00 0.00 0.00 0.00 0.00 0.00 0.00 0.00 0.00 0.00 0.00 0.00 0.00 0.00 0.00 0.00 0.00 0.00 0.00 0.00 0.00 0.00 0.00 0.00
0.01 0.06 0.11 0.05 0.01 0.00 0.00 0.00 0.00 0.00 0.00 0.00 0.00 0.00 0.00 0.00 0.00 0.00 0.00 0.00 0.00 0.00 0.00 0.00 0.00 0.00 0.00 0.00 0.00 0.00 0.00 0.00 0.00
0.00 0.00 0.05 0.11 0.07 0.02 0.03 0.00 0.00 0.00 0.00 0.00 0.00 0.00 0.00 0.00 0.00 0.00 0.00 0.00 0.00 0.00 0.00 0.00 0.00 0.00 0.00 0.00 0.00 0.00 0.00 0.00 0.00
0.00 0.00 0.00 0.03 0.11 0.10 0.03 0.02 0.00 0.00 0.00 0.00 0.00 0.00 0.00 0.00 0.00 0.00 0.00 0.00 0.00 0.00 0.00 0.00 0.00 0.00 0.00 0.00 0.00 0.00 0.00 0.00 0.00
0.00 0.00 0.00 0.02 0.03 0.07 0.01 0.00 0.00 0.00 0.00 0.00 0.00 0.00 0.00 0.00 0.00 0.00 0.00 0.00 0.00 0.00 0.00 0.00 0.00 0.00 0.00 0.00 0.00 0.00 0.00 0.00 0.00
0.00 0.00 0.00 0.00 0.00 0.00 0.00 0.00 0.00 0.00 0.00 0.00 0.00 0.00 0.00 0.00 0.00 0.00 0.00 0.00 0.00 0.00 0.00 0.00 0.00 0.00 0.00 0.00 0.00 0.00 0.00 0.00 0.00
0.01 0.02 0.04 0.02 0.00 0.01 0.02 0.00 0.00 0.00 0.00 0.00 0.00 0.00 0.00 0.00 0.00 0.00 0.00 0.00 0.00 0.00 0.00 0.00 0.00 0.00 0.00 0.00 0.00 0.00 0.00 0.00 0.00
0.00 0.00 0.08 0.06 0.02 0.02 0.01 0.04 0.02 0.00 0.00 0.00 0.00 0.00 0.00 0.00 0.00 0.00 0.00 0.00 0.00 0.00 0.00 0.00 0.00 0.00 0.00 0.00 0.00 0.00 0.00 0.00 0.00
0.00 0.00 0.00 0.01 0.01 0.02 0.02 0.02 0.03 0.00 0.00 0.00 0.00 0.00 0.00 0.00 0.00 0.00 0.00 0.00 0.00 0.00 0.00 0.00 0.00 0.00 0.00 0.00 0.00 0.00 0.00 0.00 0.00
0.00 0.00 0.00 0.01 0.04 0.03 0.06 0.04 0.03 0.02 0.02 0.00 0.00 0.00 0.00 0.00 0.00 0.00 0.00 0.00 0.00 0.00 0.00 0.00 0.00 0.00 0.00 0.00 0.00 0.00 0.00 0.00 0.00
0.00 0.00 0.01 0.01 0.03 0.09 0.04 0.07 0.15 0.15 0.12 0.04 0.01 0.00 0.00 0.00 0.00 0.00 0.00 0.00 0.00 0.00 0.00 0.00 0.00 0.00 0.00 0.00 0.00 0.00 0.00 0.00 0.00
0.00 0.00 0.01 0.01 0.00 0.03 0.04 0.05 0.05 0.07 0.16 0.18 0.06 0.00 0.00 0.00 0.00 0.00 0.00 0.00 0.00 0.00 0.00 0.00 0.00 0.00 0.00 0.00 0.00 0.00 0.00 0.00 0.00
0.00 0.00 0.02 0.01 0.01 0.01 0.00 0.05 0.10 0.08 0.06 0.07 0.03 0.00 0.00 0.00 0.00 0.00 0.00 0.00 0.00 0.00 0.00 0.00 0.00 0.00 0.00 0.00 0.00 0.00 0.00 0.00 0.00
0.00 0.00 0.00 0.00 0.00 0.00 0.00 0.01 0.05 0.07 0.05 0.04 0.01 0.01 0.00 0.00 0.00 0.00 0.00 0.00 0.00 0.00 0.00 0.00 0.00 0.00 0.00 0.00 0.00 0.00 0.00 0.00 0.00
0.00 0.00 0.00 0.00 0.00 0.00 0.00 0.02 0.03 0.05 0.05 0.01 0.01 0.04 0.03 0.00 0.00 0.00 0.00 0.00 0.00 0.00 0.00 0.00 0.00 0.00 0.00 0.00 0.00 0.00 0.00 0.00 0.00
0.00 0.00 0.00 0.00 0.00 0.00 0.01 0.03 0.02 0.01 0.00 0.00 0.00 0.00 0.05 0.02 0.00 0.00 0.00 0.00 0.00 0.00 0.00 0.00 0.00 0.00 0.00 0.00 0.00 0.00 0.00 0.00 0.00
0.00 0.00 0.00 0.00 0.00 0.00 0.00 0.00 0.00 0.00 0.00 0.00 0.00 0.00 0.00 0.01 0.00 0.00 0.00 0.00 0.00 0.00 0.00 0.00 0.00 0.00 0.00 0.00 0.00 0.00 0.00 0.00 0.00
0.00 0.00 0.00 0.00 0.00 0.00 0.00 0.00 0.00 0.00 0.00 0.00 0.00 0.00 0.00 0.00 0.00 0.00 0.00 0.00 0.00 0.00 0.00 0.00 0.00 0.00 0.00 0.00 0.00 0.00 0.00 0.00 0.00
0.00 0.00 0.00 0.00 0.00 0.00 0.00 0.00 0.00 0.00 0.00 0.00 0.00 0.00 0.00 0.00 0.00 0.00 0.00 0.00 0.00 0.00 0.00 0.00 0.00 0.00 0.00 0.00 0.00 0.00 0.00 0.00 0.00
0.00 0.00 0.00 0.00 0.00 0.00 0.00 0.00 0.00 0.00 0.00 0.01 0.01 0.00 0.00 0.00 0.00 0.00 0.00 0.00 0.00 0.00 0.00 0.00 0.00 0.00 0.00 0.00 0.00 0.00 0.00 0.00 0.00
MSLP
1005.41 1006.02 1006.70 1006.48 1007.27 1008.07 1008.97 1010.06 1010.96 1011.81 1012.40 1012.89 1013.57 1014.14 1014.88 1015.39 1015.67 1015.90 1016.22 1016.50 1016.76 1017.07 1017.40 1017.59 1017.78 1018.19 1018.66 1019.06 1019.33 1019.73 1020.03 1020.31 1020.48
1005.72 1006.40 1007.05 1007.31 1007.40 1007.48 1008.30 1009.36 1010.16 1010.84 1011.82 1012.43 1012.89 1013.40 1014.02 1014.71 1015.22 1015.42 1015.81 1016.02 1016.37 1016.59 1016.91 1017.18 1017.48 1017.76 1018.33 1018.73 1019.10 1019.37 1019.81 1020.25 1020.34
1004.86 1005.02 1006.26 1007.17 1008.02 1008.99 1008.42 1008.45 1009.73 1010.78 1011.52 1012.12 1012.51 1013.05 1013.46 1013.84 1014.46 1014.84 1015.15 1015.58 1015.96 1016.09 1016.16 1016.62 1016.83 1017.54 1018.06 1018.57 1018.80 1019.04 1019.67 1020.07 1020.22
1002.71 1003.59 1004.87 1006.17 1008.19 1009.02 1009.33 1008.31 1008.80 1009.69 1010.49 1011.39 1012.10 1012.51 1013.00 1013.53 1013.97 1014.43 1014.76 1015.14 1015.42 1015.67 1015.82 1016.25 1016.58 1017.09 1017.63 1018.23 1018.62 1018.90 1019.32 1019.71 1019.93
1001.77 1002.99 1004.86 1006.49 1007.24 1007.24 1008.41 1008.06 1007.54 1008.26 1009.36 1010.04 1010.76 1011.68 1012.30 1012.86 1013.42 1013.88 1014.21 1014.60 1014.82 1015.16 1015.54 1015.90 1016.38 1016.72 1017.20 1017.73 1018.19 1018.49 1018.91 1019.26 1019.52
1003.41 1005.04 1005.96 1006.35 1005.39 1005.26 1005.80 1006.95 1006.97 1007.15 1007.78 1008.94 1009.76 1010.61 1011.59 1012.18 1012.61 1013.07 1013.46 1013.81 1014.34 1014.62 1015.06 1015.35 1015.93 1016.30 1016.72 1017.15 1017.63 1018.02 1018.39 1018.74 1019.03
1005.31 1006.40 1007.40 1006.44 1005.64 1005.31 1006.10 1006.02 1005.98 1006.12 1006.67 1007.42 1008.71 1009.54 1010.40 1011.02 1011.48 1012.03 1012.58 1013.07 1013.67 1014.16 1014.46 1014.82 1015.14 1015.66 1016.08 1016.40 1016.85 1017.32 1017.79 1018.25 1018.54
1006.46 1007.06 1008.51 1008.28 1007.97 1007.62 1006.74 1005.72 1005.21 1005.70 1005.61 1006.28 1007.16 1008.30 1009.13 1009.75 1010.53 1011.33 1012.01 1012.50 1013.00 1013.57 1013.89 1014.08 1014.50 1014.96 1015.47 1015.91 1016.36 1016.80 1017.26 1017.68 1018.03
1006.50 1006.82 1007.59 1007.93 1007.50 1004.24 1005.02 1004.59 1004.06 1005.12 1005.42 1005.58 1006.08 1007.09 1007.96 1009.04 1009.75 1010.31 1010.87 1011.49 1012.08 1012.72 1013.11 1013.42 1013.84 1014.37 1014.90 1015.42 1015.76 1016.17 1016.62 1017.08 1017.46
1006.03 1006.22 1006.49 1006.99 1005.98 1003.64 1003.98 1004.17 1003.70 1003.54 1004.82 1005.30 1005.35 1006.12 1007.30 1008.00 1008.76 1009.36 1009.87 1010.54 1011.20 1011.74 1012.20 1012.75 1013.16 1013.59 1014.13 1014.56 1015.00 1015.41 1015.82 1016.23 1016.66
1007.05 1006.87 1006.28 1006.34 1006.22 1006.52 1006.30 1007.00 1006.32 1006.17 1006.50 1006.13 1005.09 1005.24 1006.08 1006.91 1007.65 1008.26 1009.04 1009.57 1010.12 1010.85 1011.38 1011.79 1012.32 1012.81 1013.22 1013.73 1014.13 1014.58 1015.01 1015.46 1016.02
1008.50 1008.26 1007.68 1007.02 1006.43 1006.36 1007.09 1007.13 1006.65 1006.56 1007.01 1006.38 1006.55 1005.99 1004.94 1005.72 1006.44 1007.24 1007.97 1008.50 1008.91 1009.56 1010.35 1010.94 1011.35 1011.81 1012.41 1012.86 1013.31 1013.82 1014.22 1014.78 1015.40
1009.06 1008.74 1008.46 1006.66 1005.17 1005.04 1005.82 1007.34 1007.98 1008.00 1007.32 1006.80 1005.29 1005.65 1004.86 1004.88 1005.56 1006.09 1006.61 1007.18 1007.91 1008.60 1009.23 1009.80 1010.51 1010.93 1011.34 1011.83 1012.32 1012.85 1013.31 1013.88 1014.40
1009.10 1008.02 1007.29 1006.60 1005.76 1005.13 1005.06 1005.77 1006.35 1006.75 1006.73 1004.94 1003.70 1003.60 1004.04 1004.12 1004.42 1004.78 1005.41 1006.23 1007.06 1007.62 1008.28 1008.96 1009.44 1009.97 1010.43 1010.97 1011.48 1011.91 1012.40 1012.88 1013.46
1009.35 1008.40 1007.78 1006.96 1006.18 1005.67 1005.68 1005.16 1005.20 1005.88 1005.49 1004.15 1002.74 1001.77 1002.81 1003.46 1003.61 1003.95 1004.61 1005.20 1006.11 1006.78 1007.49 1008.08 1008.57 1009.14 1009.62 1009.81 1010.22 1010.74 1011.28 1011.79 1012.30
1009.66 1007.66 1007.48 1006.53 1006.52 1006.76 1006.28 1005.65 1004.90 1003.89 1002.16 1002.24 1001.92 1001.98 1002.31 1002.79 1002.91 1003.08 1003.56 1004.32 1005.09 1005.95 1006.60 1007.09 1007.65 1008.14 1008.41 1008.60 1008.94 1009.40 1009.94 1010.48 1010.98
1009.43 1008.16 1007.85 1007.81 1007.83 1006.79 1006.15 1006.08 1005.89 1004.92 1003.76 1002.42 1002.24 1001.76 1001.64 1001.81 1002.03 1002.20 1002.69 1003.41 1004.19 1004.86 1005.39 1005.96 1006.48 1006.89 1007.10 1007.49 1007.93 1008.24 1008.68 1009.79 1010.51
1008.79 1008.31 1008.03 1008.07 1007.56 1007.24 1006.77 1006.68 1006.25 1005.30 1004.52 1003.48 1002.44 1001.74 1000.95 1000.72 1000.82 1001.29 1001.85 1002.55 1003.41 1003.83 1003.84 1004.28 1004.93 1005.42 1006.06 1006.50 1006.80 1006.89 1007.30 1008.07 1009.14
1008.48 1008.14 1008.03 1007.96 1007.60 1007.02 1006.89 1006.71 1006.24 1005.90 1005.14 1003.84 1002.71 1001.54 1000.54 1000.17 1000.10 1000.60 1000.97 1001.84 1003.50 1004.10 1004.07 1003.96 1004.02 1004.47 1004.93 1005.43 1005.94 1006.18 1006.72 1007.23 1007.84
1008.16 1008.40 1007.91 1007.73 1007.57 1007.36 1007.31 1006.83 1006.52 1006.30 1005.27 1004.12 1002.98 1001.64 1000.29 999.46 999.45 999.64 1000.10 1000.94 1002.16 1003.62 1004.76 1004.76 1004.63 1004.53 1004.51 1004.75 1005.30 1005.94 1006.43 1006.69 1007.25
Thickness
5807 5808 5803 5820 5816 5815 5813 5808 5806 5804 5805 5806 5808 5808 5806 5806 5807 5808 5806 5807 5807 5806 5805 5805 5805 5802 5800 5797 5795 5792 5789 5789 5788
5799 5801 5801 5804 5815 5815 5816 5812 5809 5808 5805 5806 5808 5809 5810 5809 5809 5811 5810 5811 5810 5809 5810 5810 5808 5806 5804 5801 5799 5797 5793 5791 5789
5805 5814 5808 5808 5806 5797 5806 5815 5810 5806 5803 5803 5805 5806 5811 5812 5812 5813 5813 5813 5812 5813 5815 5814 5813 5809 5807 5804 5802 5801 5797 5793 5793
5821 5818 5813 5801 5796 5793 5794 5807 5811 5811 5809 5804 5804 5807 5810 5811 5813 5814 5814 5814 5814 5815 5818 5816 5815 5813 5810 5807 5805 5803 5801 5798 5797
5822 5816 5803 5790 5796 5801 5796 5805 5818 5816 5812 5813 5811 5807 5808 5810 5811 5812 5815 5815 5817 5817 5816 5817 5815 5815 5813 5810 5808 5807 5804 5801 5801
5797 5786 5783 5787 5801 5810 5814 5809 5816 5823 5818 5814 5815 5812 5808 5809 5812 5814 5817 5818 5817 5818 5818 5818 5816 5815 5813 5812 5810 5809 5808 5805 5803
5765 5764 5761 5782 5792 5801 5803 5811 5818 5827 5824 5821 5818 5817 5812 5812 5815 5816 5817 5819 5818 5817 5819 5818 5818 5817 5816 5815 5815 5813 5811 5809 5806
5748 5752 5748 5754 5759 5770 5791 5808 5822 5829 5831 5825 5828 5822 5818 5816 5816 5815 5814 5816 5817 5817 5819 5821 5820 5818 5817 5816 5815 5814 5812 5810 5808
5739 5744 5749 5755 5760 5799 5803 5818 5828 5823 5829 5821 5832 5827 5822 5818 5816 5816 5818 5818 5818 5817 5818 5820 5820 5819 5817 5815 5816 5816 5813 5812 5808
5744 5747 5749 5751 5762 5798 5807 5810 5821 5829 5823 5820 5827 5829 5822 5821 5819 5817 5819 5819 5818 5819 5819 5819 5819 5819 5818 5817 5817 5816 5815 5814 5813
5725 5732 5746 5753 5753 5763 5775 5774 5785 5796 5798 5803 5817 5829 5828 5826 5823 5820 5818 5820 5821 5820 5820 5821 5820 5819 5820 5818 5819 5818 5816 5814 5813
5705 5712 5725 5736 5744 5758 5763 5760 5769 5763 5754 5770 5794 5807 5831 5830 5827 5822 5820 5820 5823 5823 5820 5820 5821 5821 5820 5819 5819 5818 5816 5812 5810
5694 5696 5702 5729 5752 5760 5763 5746 5748 5743 5746 5771 5802 5811 5822 5831 5829 5827 5826 5824 5822 5822 5823 5822 5820 5820 5822 5821 5820 5819 5817 5814 5813
5683 5695 5707 5726 5744 5750 5754 5756 5760 5769 5772 5795 5814 5825 5826 5827 5833 5834 5831 5827 5823 5824 5822 5821 5821 5821 5821 5821 5822 5821 5816 5814 5815
5661 5678 5691 5712 5725 5736 5738 5750 5758 5761 5760 5791 5816 5829 5827 5826 5834 5836 5832 5829 5824 5823 5821 5818 5818 5817 5816 5822 5824 5821 5817 5815 5814
5642 5673 5687 5704 5712 5714 5725 5737 5753 5771 5794 5802 5811 5817 5819 5825 5833 5836 5835 5829 5826 5821 5820 5818 5817 5816 5816 5820 5824 5825 5820 5817 5816
5628 5655 5669 5677 5678 5700 5717 5726 5734 5757 5775 5791 5800 5811 5820 5825 5827 5832 5834 5833 5830 5826 5823 5820 5819 5818 5819 5820 5821 5824 5826 5818 5813
5621 5641 5653 5663 5674 5684 5698 5709 5723 5744 5757 5773 5787 5802 5815 5825 5830 5829 5830 5832 5830 5831 5835 5832 5826 5825 5822 5819 5819 5827 5828 5824 5818
5610 5624 5637 5648 5663 5676 5683 5697 5712 5725 5739 5758 5775 5790 5807 5816 5824 5825 5829 5827 5818 5816 5821 5826 5829 5828 5827 5826 5824 5825 5822 5820 5818
5598 5609 5626 5638 5650 5660 5671 5683 5697 5708 5726 5746 5763 5780 5799 5813 5816 5821 5823 5824 5820 5814 5809 5810 5813 5817 5819 5821 5821 5815 5813 5812 5810